When you browse on this site, cookies collect data to enhance your experience and personalize the content and advertising you see.
Visit our Privacy Policy to learn more. By continuing to use the site, you agree to this use of cookies and data.
  • In Sweden
  • List of Countries
  • For 7 days
  • Water Temperature
  • Weather Map
  • Weather Widgets
  • user-avatar
    Login

    Hourly Weather Shkoder

    Today, 22 October, Tuesday

    Time Temperature Precipitation Wind Pressure Humidity
    00:00 +19°C° 0 mm 1 mps 744 mmHg 52%
    01:00 +18°C° 0 mm 2 mps 744 mmHg 52%
    02:00 +18°C° 0 mm 2 mps 744 mmHg 51%
    03:00 +18°C° 0 mm 2 mps 744 mmHg 50%
    04:00 +18°C° 0 mm 2 mps 744 mmHg 50%
    05:00 +18°C° 0 mm 2 mps 744 mmHg 50%
    06:00 +18°C° 0 mm 2 mps 744 mmHg 51%
    07:00 +18°C° 0 mm 2 mps 744 mmHg 51%
    08:00 +21°C° 0 mm 2 mps 744 mmHg 46%
    09:00 +24°C° 0 mm 1 mps 744 mmHg 41%
    10:00 +26°C° 0 mm 1 mps 744 mmHg 37%
    11:00 +27°C° 0 mm 1 mps 744 mmHg 34%
    12:00 +28°C° 0 mm 1 mps 744 mmHg 32%
    13:00 +29°C° 0 mm 1 mps 744 mmHg 30%
    14:00 +28°C° 0 mm 1 mps 743 mmHg 34%
    15:00 +27°C° 0 mm 1 mps 743 mmHg 39%
    16:00 +26°C° 0 mm 1 mps 743 mmHg 44%
    17:00 +24°C° 0 mm 1 mps 743 mmHg 44%
    18:00 +23°C° 0 mm 1 mps 743 mmHg 45%
    19:00 +21°C° 0 mm 2 mps 743 mmHg 45%
    20:00 +20°C° 0 mm 2 mps 743 mmHg 44%
    21:00 +20°C° 0 mm 2 mps 743 mmHg 43%
    22:00 +20°C° 0 mm 2 mps 743 mmHg 42%
    23:00 +19°C° 0 mm 2 mps 743 mmHg 43%

    Tomorrow, 23 October, Wednesday

    Time Temperature Precipitation Wind Pressure Humidity
    00:00 +19°C° 0 mm 2 mps 743 mmHg 44%
    01:00 +19°C° 0 mm 2 mps 743 mmHg 44%
    02:00 +18°C° 0 mm 2 mps 743 mmHg 45%
    03:00 +18°C° 0 mm 2 mps 743 mmHg 45%
    04:00 +18°C° 0 mm 2 mps 743 mmHg 46%
    05:00 +18°C° 0 mm 2 mps 743 mmHg 46%
    06:00 +18°C° 0 mm 2 mps 743 mmHg 47%
    07:00 +18°C° 0 mm 2 mps 743 mmHg 47%
    08:00 +21°C° 0 mm 1 mps 743 mmHg 43%
    09:00 +24°C° 0 mm 1 mps 743 mmHg 39%
    10:00 +26°C° 0 mm 1 mps 743 mmHg 35%
    11:00 +27°C° 0 mm 1 mps 743 mmHg 33%
    12:00 +28°C° 0 mm 1 mps 743 mmHg 32%
    13:00 +28°C° 0 mm 1 mps 742 mmHg 30%
    14:00 +27°C° 0 mm 1 mps 742 mmHg 36%
    15:00 +26°C° 0 mm 1 mps 742 mmHg 41%
    16:00 +25°C° 0 mm 1 mps 742 mmHg 47%
    17:00 +23°C° 0 mm 1 mps 742 mmHg 49%
    18:00 +22°C° 0 mm 1 mps 742 mmHg 51%
    19:00 +21°C° 0 mm 1 mps 742 mmHg 53%
    20:00 +20°C° 0 mm 1 mps 742 mmHg 52%
    21:00 +20°C° 0 mm 1 mps 742 mmHg 51%
    22:00 +20°C° 0 mm 1 mps 743 mmHg 50%
    23:00 +19°C° 0 mm 1 mps 743 mmHg 51%

    Day after tomorrow, 24 October, Thursday

    Time Temperature Precipitation Wind Pressure Humidity
    00:00 +19°C° 0 mm 1 mps 742 mmHg 51%
    01:00 +19°C° 0 mm 1 mps 742 mmHg 51%
    02:00 +19°C° 0 mm 1 mps 742 mmHg 51%
    03:00 +18°C° 0 mm 1 mps 742 mmHg 50%
    04:00 +18°C° 0 mm 1 mps 742 mmHg 50%
    05:00 +18°C° 0 mm 1 mps 742 mmHg 49%
    06:00 +18°C° 0 mm 1 mps 741 mmHg 49%
    07:00 +19°C° 0 mm 1 mps 741 mmHg 48%
    08:00 +21°C° 0 mm 1 mps 741 mmHg 43%
    09:00 +23°C° 0 mm 1 mps 741 mmHg 39%
    10:00 +26°C° 0 mm 1 mps 741 mmHg 34%
    11:00 +26°C° 0 mm 1 mps 741 mmHg 33%
    12:00 +27°C° 0 mm 1 mps 741 mmHg 32%
    13:00 +27°C° 0 mm 1 mps 740 mmHg 31%
    14:00 +26°C° 0 mm 1 mps 740 mmHg 36%
    15:00 +25°C° 0 mm 1 mps 740 mmHg 42%
    16:00 +24°C° 0 mm 1 mps 739 mmHg 47%
    17:00 +22°C° 0 mm 1 mps 740 mmHg 49%
    18:00 +21°C° 0 mm 1 mps 740 mmHg 52%
    19:00 +19°C° 0 mm 1 mps 740 mmHg 54%
    20:00 +19°C° 0 mm 1 mps 740 mmHg 52%
    21:00 +19°C° 0 mm 1 mps 740 mmHg 51%
    22:00 +18°C° 0 mm 1 mps 740 mmHg 49%
    23:00 +18°C° 0 mm 1 mps 740 mmHg 48%

    25 October, Friday

    Time Temperature Precipitation Wind Pressure Humidity
    00:00 +18°C° 0 mm 1 mps 740 mmHg 47%
    01:00 +18°C° 0 mm 1 mps 740 mmHg 46%
    02:00 +16°C° 0 mm 1 mps 740 mmHg 46%
    03:00 +16°C° 0 mm 1 mps 740 mmHg 45%
    04:00 +16°C° 0 mm 1 mps 740 mmHg 45%
    05:00 +16°C° 0 mm 1 mps 740 mmHg 44%
    06:00 +16°C° 0 mm 1 mps 740 mmHg 44%
    07:00 +18°C° 0 mm 1 mps 741 mmHg 43%
    08:00 +20°C° 0 mm 1 mps 741 mmHg 39%
    09:00 +22°C° 0 mm 1 mps 741 mmHg 36%
    10:00 +24°C° 0 mm 1 mps 741 mmHg 32%
    11:00 +25°C° 0 mm 1 mps 741 mmHg 31%
    12:00 +25°C° 0 mm 1 mps 740 mmHg 30%
    13:00 +26°C° 0 mm 1 mps 740 mmHg 29%
    14:00 +25°C° 0 mm 1 mps 740 mmHg 34%
    15:00 +24°C° 0 mm 1 mps 740 mmHg 40%
    16:00 +22°C° 0 mm 1 mps 740 mmHg 45%
    17:00 +21°C° 0 mm 1 mps 740 mmHg 46%
    18:00 +20°C° 0 mm 1 mps 741 mmHg 46%
    19:00 +19°C° 0 mm 1 mps 741 mmHg 47%
    20:00 +19°C° 0 mm 1 mps 741 mmHg 46%
    21:00 +18°C° 0 mm 1 mps 742 mmHg 45%
    22:00 +17°C° 0 mm 2 mps 742 mmHg 44%
    23:00 +17°C° 0 mm 2 mps 742 mmHg 44%

    26 October, Saturday

    Time Temperature Precipitation Wind Pressure Humidity
    00:00 +17°C° 0 mm 2 mps 742 mmHg 44%
    01:00 +16°C° 0 mm 2 mps 742 mmHg 44%
    02:00 +16°C° 0 mm 2 mps 742 mmHg 45%
    03:00 +16°C° 0 mm 2 mps 742 mmHg 46%
    04:00 +16°C° 0 mm 2 mps 742 mmHg 47%
    05:00 +16°C° 0 mm 2 mps 742 mmHg 47%
    06:00 +16°C° 0 mm 2 mps 742 mmHg 47%
    07:00 +16°C° 0 mm 2 mps 742 mmHg 47%
    08:00 +19°C° 0 mm 1 mps 742 mmHg 43%
    09:00 +22°C° 0 mm 1 mps 743 mmHg 38%
    10:00 +24°C° 0 mm 1 mps 743 mmHg 34%
    11:00 +25°C° 0 mm 1 mps 743 mmHg 32%
    12:00 +26°C° 0 mm 1 mps 742 mmHg 31%
    13:00 +27°C° 0 mm 1 mps 742 mmHg 30%
    14:00 +25°C° 0 mm 1 mps 742 mmHg 36%
    15:00 +24°C° 0 mm 1 mps 742 mmHg 41%
    16:00 +23°C° 0 mm 1 mps 742 mmHg 47%
    17:00 +21°C° 0 mm 1 mps 742 mmHg 50%
    18:00 +20°C° 0 mm 1 mps 742 mmHg 53%
    19:00 +19°C° 0 mm 1 mps 742 mmHg 56%
    20:00 +18°C° 0 mm 1 mps 742 mmHg 55%
    21:00 +18°C° 0 mm 1 mps 742 mmHg 54%
    22:00 +18°C° 0 mm 1 mps 743 mmHg 53%
    23:00 +18°C° 0 mm 1 mps 743 mmHg 50%

    27 October, Sunday

    Time Temperature Precipitation Wind Pressure Humidity
    00:00 +16°C° 0 mm 1 mps 742 mmHg 48%
    01:00 +16°C° 0 mm 1 mps 742 mmHg 46%
    02:00 +16°C° 0 mm 1 mps 742 mmHg 45%
    03:00 +16°C° 0 mm 1 mps 742 mmHg 44%
    04:00 +15°C° 0 mm 1 mps 742 mmHg 43%
    05:00 +15°C° 0 mm 1 mps 742 mmHg 43%
    06:00 +16°C° 0 mm 1 mps 742 mmHg 43%
    07:00 +16°C° 0 mm 1 mps 742 mmHg 43%
    08:00 +19°C° 0 mm 1 mps 742 mmHg 39%
    09:00 +21°C° 0 mm 1 mps 742 mmHg 35%
    10:00 +24°C° 0 mm 1 mps 742 mmHg 31%
    11:00 +24°C° 0 mm 1 mps 742 mmHg 30%
    12:00 +25°C° 0 mm 1 mps 742 mmHg 30%
    13:00 +26°C° 0 mm 2 mps 741 mmHg 29%
    14:00 +24°C° 0 mm 2 mps 741 mmHg 35%
    15:00 +23°C° 0 mm 1 mps 741 mmHg 40%
    16:00 +22°C° 0 mm 1 mps 741 mmHg 46%
    17:00 +20°C° 0 mm 1 mps 741 mmHg 48%
    18:00 +19°C° 0 mm 1 mps 741 mmHg 49%
    19:00 +18°C° 0 mm 1 mps 741 mmHg 51%
    20:00 +16°C° 0 mm 1 mps 741 mmHg 48%
    21:00 +16°C° 0 mm 1 mps 741 mmHg 45%
    22:00 +16°C° 0 mm 1 mps 741 mmHg 43%
    23:00 +16°C° 0 mm 1 mps 741 mmHg 42%

    28 October, Monday

    Time Temperature Precipitation Wind Pressure Humidity
    00:00 +16°C° 0 mm 1 mps 741 mmHg 42%
    01:00 +15°C° 0 mm 1 mps 741 mmHg 41%
    02:00 +15°C° 0 mm 1 mps 741 mmHg 41%
    03:00 +15°C° 0 mm 1 mps 741 mmHg 42%
    04:00 +15°C° 0 mm 1 mps 740 mmHg 42%
    05:00 +15°C° 0 mm 1 mps 740 mmHg 42%
    06:00 +16°C° 0 mm 1 mps 740 mmHg 42%
    07:00 +16°C° 0 mm 1 mps 740 mmHg 42%
    08:00 +19°C° 0 mm 1 mps 740 mmHg 39%
    09:00 +21°C° 0 mm 1 mps 740 mmHg 35%
    10:00 +24°C° 0 mm 1 mps 740 mmHg 32%
    11:00 +24°C° 0 mm 1 mps 740 mmHg 32%
    12:00 +25°C° 0 mm 1 mps 740 mmHg 32%
    13:00 +25°C° 0 mm 2 mps 740 mmHg 33%
    14:00 +24°C° 0 mm 1 mps 739 mmHg 38%
    15:00 +23°C° 0 mm 1 mps 739 mmHg 43%
    16:00 +22°C° 0 mm 1 mps 739 mmHg 48%
    17:00 +21°C° 0 mm 1 mps 739 mmHg 51%
    18:00 +19°C° 0 mm 1 mps 739 mmHg 53%
    19:00 +18°C° 0 mm 1 mps 739 mmHg 56%
    20:00 +18°C° 0 mm 1 mps 740 mmHg 56%
    21:00 +18°C° 0 mm 1 mps 740 mmHg 56%
    22:00 +18°C° 0 mm 1 mps 740 mmHg 57%
    23:00 +16°C° 0 mm 1 mps 740 mmHg 58%
    Show more